Location: Rio Negrinho
(26.2394°S, 49.4999°W)
Time: 02:47:33
(UTC+00:00)

NOAA 6 - Pass Details

Date: 09 October 2020
Orbit: 773 x 786 km, 98.7° (Epoch: 20 October)

Event Time Altitude Azimuth Distance (km) Brightness Sun altitude
Rises 07:38:51 0° 42° (NE) 3,252 7.6 -16.1°
Reaches altitude 10° 07:41:31 10° 55° (NE) 2,330 7.0 -15.6°
Maximum altitude 07:45:40 25° 109° (ESE) 1,528 6.5 -14.7°
Drops below altitude 10° 07:49:50 10° 163° (SSE) 2,345 6.9 -13.8°
Sets 07:52:30 0° 175° (S) 3,278 7.5 -13.2°
